SCP
0 0 0 0 0 0 1 1 1 0 0 0 0 0 0 0 0 0 1 1 0 0 0 0 0 0 0 0 0 0 0 0 0 0 0 0 0 0 0 1 1 1 1
0 0 0 0 0 0 0 1 1 0 0 0 0 0 0 0 0 0 1 1 0 0 0 0 0 0 0 0 0 0 0 0 0 0 0 0 0 0 0 0 1 1 1
0 0 0 0 0 0 0 0 0 0 0 0 0 0 0 0 0 0 1 1 0 0 0 0 0 0 0 0 0 0 0 0 0 0 0 0 0 0 0 0 0 1 1
0 0 0 0 0 0 0 0 1 1 0 0 0 0 0 0 0 0 1 1 0 0 0 0 0 0 0 0 0 0 0 0 0 0 0 0 0 0 0 0 0 0 0
0 0 0 0 0 0 0 0 1 1 1 0 0 0 0 0 0 0 0 0 0 0 0 0 0 0 0 0 0 0 0 0 0 0 0 0 0 0 0 0 0 0 0
0 0 0 0 0 0 0 0 1 1 1 0 0 0 0 0 0 0 0 0 0 0 0 0 0 0 0 0 0 0 0 0 0 0 0 0 0 0 0 0 0 0 0
0 0 0 0 0 0 0 0 0 1 1 0 0 0 0 0 0 0 0 0 0 0 0 0 0 0 0 0 0 0 0 0 0 0 0 0 0 0 0 0 0 0 0
0 0 0 0 0 0 0 0 0 1 1 0 0 0 0 0 0 0 0 0 0 0 0 0 0 0 0 0 0 0 0 0 0 0 0 0 0 0 0 0 0 0 0
0 0 0 0 0 0 0 0 0 0 1 0 0 0 0 0 0 0 0 0 0 0 0 0 0 0 0 0 0 0 0 0 0 0 0 0 0 0 0 0 0 0 0
0 0 0 0 0 0 0 0 0 0 0 1 0 0 0 0 0 0 0 0 0 0 0 0 0 0 0 0 0 0 0 0 0 0 0 0 0 0 0 0 0 0 0
0 0 0 0 0 0 0 0 0 0 0 0 0 0 0 0 0 0 0 0 0 0 0 0 0 0 0 0 0 0 0 0 0 0 0 0 0 0 0 0 0 0 0
0 0 0 0 0 0 0 0 0 0 0 0 0 0 0 0 0 0 0 0 0 0 0 0 0 0 0 0 0 0 0 0 0 0 0 0 0 0 0 0 0 0 0
0 0 0 0 0 0 0 0 0 0 0 0 0 0 0 0 0 0 0 0 0 0 0 0 0 0 0 0 0 0 0 0 0 0 0 0 0 0 0 0 0 0 0
0 0 0 0 0 0 0 0 0 0 0 0 0 0 0 0 0 0 0 0 0 0 0 0 0 0 0 0 0 0 0 0 0 0 0 0 0 0 0 0 0 0 0
0 0 0 0 0 0 0 0 0 0 0 0 0 0 0 0 0 0 0 0 0 0 0 0 0 0 0 0 0 0 0 0 0 0 0 0 0 0 0 0 0 0 0
0 0 0 0 0 0 0 0 0 0 0 0 0 0 0 0 0 0 0 0 0 0 0 0 0 0 0 0 0 0 0 0 0 0 0 0 0 0 0 0 0 0 0
0 0 0 0 0 0 0 0 0 0 0 0 0 0 0 0 0 0 0 0 0 0 0 0 0 0 0 0 0 0 0 0 0 0 0 0 0 0 0 0 0 0 0
0 0 0 0 0 0 0 0 0 0 0 0 0 0 0 0 0 0 0 0 0 0 0 0 0 0 0 0 0 0 0 0 0 0 0 0 0 0 0 0 0 0 0
0 0 0 0 0 0 0 0 0 0 0 0 0 0 0 0 0 0 0 0 0 0 0 0 0 0 0 0 0 0 0 0 0 0 0 0 0 0 0 0 0 0 0
0 0 0 0 0 0 0 0 0 0 0 0 0 0 0 0 0 0 0 0 0 0 0 0 0 0 0 0 0 0 0 0 0 0 0 0 0 0 0 0 0 0 0
0 0 0 0 0 0 0 0 0 0 0 0 0 0 0 0 0 0 0 0 0 0 0 0 0 0 0 0 0 0 0 0 0 0 0 0 0 0 0 0 0 0 0
0 0 0 0 0 0 0 0 0 0 0 0 0 0 0 0 0 0 0 0 0 0 0 0 0 0 0 0 0 0 0 0 0 0 0 0 0 0 0 0 0 0 0
0 0 0 0 0 0 0 0 0 0 0 0 0 0 0 0 0 0 0 0 0 0 0 0 0 0 0 0 0 0 0 0 0 0 0 0 0 0 0 0 0 0 0
0 0 0 0 0 0 0 0 0 0 0 0 0 0 0 0 0 0 0 0 0 0 0 0 0 0 0 0 0 0 0 0 0 0 0 0 0 0 0 0 0 0 0
0 0 0 0 0 0 0 0 0 0 0 0 0 0 0 0 0 0 0 0 0 0 0 0 0 0 0 0 0 0 0 0 0 0 0 0 0 0 0 0 0 0 0
0 0 0 0 0 0 0 0 0 0 0 0 0 0 0 0 0 0 0 0 0 0 0 0 0 0 0 0 0 0 0 0 0 0 0 0 0 0 0 0 0 0 0
Wind_Speed
1 1 1 2 2 2 3 4 4 5 5 4 4 4 3 3 3 2 4 4 4 3 3 3 4 3 3 4 4 4 5 4 3 3 3 2 2 2 2 1 1 2 2
1 1 2 2 3 3 3 4 4 5 5 4 4 3 3 2 2 2 3 3 3 3 3 3 3 3 3 4 4 4 3 2 1 1 2 2 3 2 1 1 1 1 1
2 2 3 3 3 3 3 3 4 5 5 5 4 4 3 2 2 3 3 3 3 3 3 3 3 3 3 4 4 3 3 3 1 1 1 1 1 2 2 2 1 1 1
2 3 4 4 4 3 4 4 5 5 5 5 5 5 4 3 3 3 3 3 3 3 3 3 3 3 3 4 3 3 2 3 2 1 1 2 1 1 2 3 2 2 2
2 3 4 4 4 4 4 4 5 5 5 5 5 5 4 3 3 4 4 4 3 3 3 3 3 3 2 3 3 3 2 2 2 2 1 1 1 2 2 2 2 2 2
1 2 3 4 4 4 4 5 5 5 6 6 6 5 5 5 5 5 5 3 3 2 3 3 3 3 2 3 3 2 3 2 2 1 2 2 2 2 2 2 2 3 2
1 2 3 4 4 4 4 5 6 6 6 6 6 5 5 6 6 6 5 5 3 3 3 2 2 2 2 2 2 2 2 2 2 2 1 1 1 1 2 2 2 3 2
0 1 3 4 4 4 5 5 6 6 6 5 5 5 5 4 4 5 4 4 3 3 4 3 3 3 3 3 3 2 2 2 2 2 2 1 1 1 2 2 2 3 3
1 1 2 3 4 5 5 5 5 5 5 5 5 5 5 4 4 4 4 4 3 3 5 4 4 3 3 3 3 2 3 3 3 2 3 2 2 1 1 2 3 3 4
2 1 1 2 3 4 4 5 5 5 5 5 5 4 4 4 4 4 4 5 5 5 5 5 4 4 4 4 4 3 3 3 3 2 3 3 2 2 2 2 2 3 4
3 2 1 1 2 3 3 4 4 4 4 5 5 5 5 4 5 4 5 4 4 5 5 5 5 5 5 4 4 4 4 4 4 4 4 4 4 3 3 3 3 3 4
3 2 1 0 1 2 3 3 4 4 4 5 5 5 5 5 5 5 5 5 5 5 6 6 6 5 5 5 5 5 5 5 5 5 5 5 4 4 4 3 4 4 5
3 2 1 1 1 2 3 3 4 5 4 5 5 5 5 6 6 6 5 5 5 5 6 6 6 6 5 5 6 6 6 6 6 6 6 5 5 5 4 5 5 4 4
3 2 2 1 1 2 2 3 4 4 5 5 5 6 6 6 6 5 5 5 6 6 6 6 6 6 6 6 6 6 6 6 6 6 6 6 6 6 6 5 6 5 5
3 3 3 3 2 1 1 2 3 4 5 5 6 6 5 5 5 5 5 5 5 6 6 6 6 6 6 6 7 6 6 7 6 6 6 6 6 6 6 5 5 5 5
3 4 4 3 3 3 2 2 3 3 4 5 5 5 5 5 5 5 5 6 6 6 6 7 7 6 6 7 9 7 7 7 7 7 7 6 7 8 9 9 9 8 7
4 4 4 4 4 3 3 3 3 2 3 4 4 4 5 5 5 5 6 6 6 6 7 7 7 7 7 9 10 11 7 7 7 7 7 5 6 7 7 9 10 10 11
4 4 4 4 4 3 3 2 2 2 3 4 4 4 5 5 5 5 6 6 6 6 6 7 7 7 7 9 10 10 9 8 8 8 8 7 7 7 7 7 7 8 8
5 4 5 5 4 4 3 2 2 2 2 3 4 4 4 5 5 5 6 6 6 6 6 6 7 7 7 9 10 10 7 7 8 8 8 8 8 8 9 8 8 8 7
4 5 4 4 4 4 3 2 2 2 3 4 4 4 4 5 5 6 5 5 5 6 5 6 6 7 7 8 10 11 6 7 7 6 7 9 10 9 10 8 8 9 8
5 4 4 4 4 4 2 2 3 3 4 3 3 4 4 5 5 5 5 5 5 5 5 6 6 6 7 8 10 11 7 7 6 6 6 6 10 11 12 10 8 9 7
4 4 4 4 4 4 3 3 4 4 4 3 3 4 4 4 4 5 4 4 5 5 5 5 5 5 5 7 8 11 11 9 7 6 6 5 9 11 12 10 9 10 8
4 4 4 4 4 4 4 4 5 4 4 4 4 4 4 4 4 4 4 4 4 4 4 4 5 4 4 5 8 10 11 11 8 6 7 7 9 9 8 10 10 8 6
4 4 4 5 5 5 5 5 5 5 4 5 4 4 4 4 4 3 4 4 4 5 5 5 5 4 4 4 4 4 6 8 7 6 6 8 8 7 7 7 6 5 5
4 4 4 5 6 6 6 5 5 4 5 5 4 4 4 4 4 4 4 5 6 5 6 5 5 5 6 6 6 5 5 5 5 4 4 4 4 5 5 4 4 4 4
4 4 5 5 6 6 6 6 5 5 5 5 4 4 3 3 4 4 4 5 7 7 9 8 7 6 8 8 9 10 9 8 7 5 5 5 5 5 5 5 5 5 5
Wind_Direction
251 203 166 154 139 122 136 138 137 136 137 134 134 134 138 127 117 110 117 122 126 139 137 131 134 140 136 135 135 130 124 116 123 130 124 116 110 117 128 129 117 101 92
241 178 153 146 152 152 145 128 134 139 140 137 132 128 128 122 111 114 109 114 126 140 138 138 141 146 140 139 140 139 135 128 150 172 169 170 169 156 161 164 158 146 138
232 197 161 161 159 158 160 153 147 144 139 133 124 115 115 120 120 121 118 111 128 135 131 139 146 148 147 145 148 155 156 153 147 307 269 222 200 153 172 191 201 210 215
225 200 176 169 172 166 159 156 152 145 142 141 142 148 156 157 154 144 137 125 122 132 130 135 137 137 142 148 155 159 167 171 167 160 343 338 346 228 182 181 196 231 248
236 204 186 174 169 157 156 153 154 152 149 151 155 163 161 150 141 141 135 128 122 124 128 130 131 137 142 144 150 155 165 186 187 179 172 177 239 263 250 223 209 225 232
244 201 173 167 155 151 153 155 165 161 159 165 169 173 164 162 157 156 151 146 138 135 132 131 138 147 147 150 154 158 168 174 180 186 202 213 224 222 240 252 247 250 230
252 192 172 174 165 164 166 171 171 164 168 174 174 175 174 176 174 170 167 162 158 157 156 153 158 158 156 154 155 160 166 172 177 188 202 225 252 258 252 261 265 267 255
330 205 178 182 179 177 175 178 173 172 175 176 177 175 176 182 179 180 173 169 163 162 167 173 173 170 167 164 165 166 167 174 178 184 199 208 213 228 239 254 260 267 251
344 254 193 187 185 183 182 182 176 177 180 183 183 178 181 188 183 179 176 173 169 168 173 175 176 176 176 177 175 180 180 182 186 189 197 211 209 221 235 243 252 266 271
339 309 230 191 187 188 187 184 184 184 182 183 183 184 186 189 187 182 185 186 180 176 176 176 182 183 183 183 185 187 192 196 195 200 206 212 214 215 220 225 237 251 267
334 330 314 205 176 178 177 183 187 185 181 185 185 188 190 189 192 193 194 195 190 185 185 187 189 189 188 190 193 197 194 202 204 207 214 218 217 219 218 220 227 233 243
344 343 352 329 181 181 179 186 192 197 193 192 193 196 194 194 202 205 202 199 198 194 193 193 195 195 196 199 202 203 204 208 212 214 218 222 219 226 227 224 229 235 237
3 8 19 3 255 206 195 195 199 202 198 195 197 198 199 202 208 210 205 202 202 197 194 196 200 201 203 208 212 212 214 217 221 220 222 224 222 227 229 230 234 237 240
354 1 353 338 285 233 213 210 213 208 198 195 200 206 209 210 212 211 207 205 205 203 201 204 207 207 207 211 214 215 220 224 226 226 228 228 227 231 231 233 235 236 239
347 345 336 329 320 293 233 218 222 217 206 203 207 214 214 211 212 212 212 211 212 213 208 210 212 211 212 214 214 215 221 226 229 229 231 232 231 236 236 236 236 234 240
334 332 328 324 314 301 283 253 234 222 216 217 219 221 218 213 213 215 214 212 214 214 212 214 215 215 218 216 219 223 225 228 231 234 234 232 228 230 235 239 243 242 243
328 325 320 313 307 299 289 277 269 241 224 227 229 227 221 217 214 212 212 214 217 216 218 219 220 224 224 218 222 225 231 232 234 236 235 231 230 230 234 235 238 242 245
327 325 323 319 313 307 296 287 276 249 237 237 234 230 225 223 217 213 216 219 219 220 223 223 224 230 230 223 226 225 231 236 237 236 236 237 236 231 232 237 239 243 244
319 319 319 317 314 310 305 293 280 266 255 252 247 236 226 226 223 223 225 223 222 224 225 227 227 231 235 227 228 226 230 235 238 238 237 237 239 233 229 236 242 248 251
324 324 324 322 316 314 309 294 285 275 266 263 259 251 237 234 233 234 234 230 228 231 230 233 232 234 240 231 229 225 229 236 238 238 237 235 238 237 229 235 241 248 254
321 321 320 317 313 313 302 283 285 281 283 277 265 253 243 240 241 239 234 230 230 233 234 236 238 239 242 239 232 228 230 234 238 239 239 236 232 238 237 239 244 250 259
316 317 316 315 317 315 298 291 293 296 296 284 268 257 251 243 238 237 236 233 228 231 236 238 243 242 241 240 237 232 232 237 240 243 244 241 233 240 243 242 246 251 256
307 310 309 311 316 315 302 294 298 301 291 278 267 262 258 247 237 231 230 231 228 230 235 239 246 248 244 242 239 238 238 238 241 246 245 247 243 246 245 242 245 246 246
304 306 305 304 307 309 301 295 299 295 286 277 272 266 257 248 238 234 230 230 229 232 235 240 247 251 249 245 238 235 236 235 238 246 245 243 242 241 247 245 241 239 241
300 298 293 293 297 302 302 304 303 295 282 278 275 269 258 251 243 238 237 237 239 238 241 243 243 248 251 245 240 243 242 238 238 241 244 239 232 232 234 237 238 238 237
294 292 292 293 296 299 300 304 301 290 282 278 273 266 261 256 251 250 252 244 248 252 251 254 251 253 257 261 251 249 250 245 235 233 236 236 235 234 235 238 240 238 240